Location: Newark
(49.8348°N, 24.0280°E)
Time: 20:58:49
(UTC+00:00)

Envisat - Visible Passes

Search period start: 08 December 2019 00:00
Search period end: 18 December 2019 00:00
Orbit: 764 x 766 km, 98.1° (Epoch: 08 December)

Date Brightness Start Highest point End Pass type
(mag) Time Alt. Az. Time Alt. Az. Time Alt. Az.
08 Dec 5.5 04:15:15 10° NE 04:19:15 23° E 04:23:14 10° SE visible
08 Dec 3.2 15:33:52 10° SE 15:38:41 46° ENE 15:43:33 10° N visible
08 Dec 5.0 17:13:34 10° SSW 17:17:55 28° W 17:22:17 10° NW visible
09 Dec 6.3 03:40:33 10° ENE 03:41:58 11° E 03:43:23 10° E visible
09 Dec 3.3 05:16:47 10° NNE 05:21:54 74° ESE 05:26:58 10° S visible
09 Dec 4.0 14:58:08 10° ESE 15:02:12 25° ENE 15:06:18 10° N visible
09 Dec 3.7 16:35:55 10° S 16:40:54 56° W 16:45:56 10° NNW visible
10 Dec 4.7 04:40:16 10° NNE 04:44:58 36° E 04:49:39 10° SSE visible
10 Dec 2.9 15:59:02 10° SSE 16:04:06 74° ENE 16:09:11 10° N visible
10 Dec 5.7 17:40:20 10° SW 17:43:41 18° W 17:47:04 10° NW visible
11 Dec 5.8 04:04:18 10° NE 04:07:51 19° E 04:11:22 10° SE visible
11 Dec 3.5 15:22:49 10° SE 15:27:28 38° ENE 15:32:09 10° N visible
11 Dec 4.6 17:01:56 10° SSW 17:06:32 34° W 17:11:11 10° NNW visible
12 Dec 3.7 05:05:33 10° NNE 05:10:35 60° E 05:15:37 10° S visible
12 Dec 3.3 16:24:32 10° S 16:29:35 69° WSW 16:34:41 10° NNW visible
12 Dec 6.2 18:08:55 10° W 18:09:35 10° W 18:10:15 10° WNW visible
13 Dec 5.1 04:29:08 10° NNE 04:33:37 30° E 04:38:03 10° SSE visible
13 Dec 3.0 15:47:51 10° SSE 15:52:50 60° ENE 15:57:52 10° N visible
13 Dec 5.4 17:28:26 10° SW 17:32:16 21° W 17:36:09 10° NW visible
14 Dec 6.0 03:53:30 10° NE 03:56:25 15° E 03:59:19 10° ESE visible
14 Dec 3.0 05:31:00 10° NNE 05:36:08 85° WNW 05:41:13 10° SSW visible
14 Dec 3.7 15:11:50 10° SE 15:16:17 32° ENE 15:20:45 10° N visible
14 Dec 4.2 16:50:23 10° SSW 16:55:11 42° W 17:00:02 10° NNW visible
15 Dec 4.1 04:54:20 10° NNE 04:59:16 49° E 05:04:11 10° S visible
15 Dec 3.0 16:13:12 10° SSE 16:18:18 85° WSW 16:23:25 10° NNW visible
15 Dec 6.0 17:55:48 10° WSW 17:58:07 13° W 18:00:27 10° WNW visible
16 Dec 5.4 04:18:04 10° NE 04:22:13 25° E 04:26:21 10° SSE visible
16 Dec 3.2 15:36:43 10° SE 15:41:36 49° ENE 15:46:30 10° N visible
16 Dec 5.1 17:16:39 10° SSW 17:20:53 26° W 17:25:08 10° NW visible
17 Dec 6.2 03:42:59 10° ENE 03:44:58 12° E 03:46:57 10° ESE visible
17 Dec 3.2 05:19:43 10° NNE 05:24:50 80° ESE 05:29:55 10° SSW visible
17 Dec 3.9 15:00:55 10° ESE 15:05:06 27° ENE 15:09:18 10° N visible
17 Dec 3.8 16:38:54 10° S 16:43:51 52° W 16:48:50 10° NNW visible
